Date String (YYYY-MM-DD hh:mm:ss) UTC,Instrument flags,absolute air pressure of the measurement (hPa),sample flow rate (lpm),inlet stack bypass flow (lpm),air temperature of the measurement (°C),ambient temperature measured by the external sensor (°C),aerosol sample conditioner tube jacket temperature (°C),OPC LED temperature (°C),internal box temperature (°C),relative humidity of the measurement (%),span deviation,mass concentration of particles derived from Lorenz-Mie calculation of OPC scattering (μg/m³),mass concentration of particles derived from Lorenz-Mie calculation of OPC scattering (μg/m³),mass concentration of particles derived from Lorenz-Mie calculation of OPC scattering (μg/m³)
DateTimeUTC,F1_M11,P_M11,Q1_M11,Q2_M11,T1_M11,T2_M11,T3_M11,T4_M11,T5_M11,U1_M11,ZSPAN_M11,X0_M11,X2_M11,X1_M11
2023-07-02 04:00:00,SystemResetWarning,0834.4,5.00,000.00,029.4,025.4,000.0,037.6,030.7,24.8,0000.0,0007.20,0003.78,0003.57
2023-07-02 04:01:00,SystemResetWarning,0834.2,5.01,000.00,029.3,025.1,000.0,037.6,030.4,24.8,0000.0,0007.22,0003.79,0003.59
2023-07-02 04:02:00,SystemResetWarning,0834.2,5.00,000.00,029.1,025.4,000.0,037.6,030.3,24.6,0000.0,0007.24,0003.81,0003.60
2023-07-02 04:03:00,SystemResetWarning,0834.2,5.02,000.00,029.1,025.8,000.0,037.6,030.4,25.1,0000.0,0006.65,0003.81,0003.62
2023-07-02 04:04:00,SystemResetWarning,0834.1,5.00,000.00,029.1,026.2,000.0,037.7,030.5,25.2,0000.0,0006.52,0003.83,0003.62
2023-07-02 04:05:00,SystemResetWarning,0834.2,5.00,000.00,029.1,026.6,000.0,037.7,030.5,25.5,0000.0,0006.39,0003.84,0003.63
2023-07-02 04:06:00,SystemResetWarning,0834.2,5.00,000.00,029.1,026.9,000.0,037.7,030.6,25.9,0000.0,0005.70,0003.86,0003.64
2023-07-02 04:07:00,SystemResetWarning,0834.2,5.00,000.00,029.1,027.2,000.0,037.7,030.7,26.0,0000.0,0005.78,0003.87,0003.65
2023-07-02 04:08:00,SystemResetWarning,0834.2,5.00,000.00,029.1,027.4,000.0,037.7,030.7,26.1,0000.0,0005.89,0003.89,0003.66
2023-07-02 04:09:00,SystemResetWarning,0834.2,5.00,000.00,029.2,027.6,000.0,037.7,030.7,25.8,0000.0,0005.88,0003.89,0003.67
2023-07-02 04:10:00,SystemResetWarning,0834.2,5.00,000.00,029.2,027.7,000.0,037.7,030.8,25.6,0000.0,0006.09,0003.90,0003.68
2023-07-02 04:11:00,SystemResetWarning,0834.2,5.00,000.00,029.2,027.9,000.0,037.7,030.8,25.3,0000.0,0006.36,0003.94,0003.68
2023-07-02 04:12:00,SystemResetWarning,0834.4,5.00,000.00,029.2,028.0,000.0,037.7,030.9,25.6,0000.0,0006.36,0003.94,0003.68
2023-07-02 04:13:00,SystemResetWarning,0834.3,5.00,000.00,029.3,028.0,000.0,037.7,030.9,27.1,0000.0,0006.37,0003.95,0003.68
2023-07-02 04:14:00,SystemResetWarning,0834.2,5.00,000.00,029.3,028.1,000.0,037.7,030.9,25.1,0000.0,0006.46,0003.96,0003.69
2023-07-02 04:15:00,SystemResetWarning,0834.3,5.00,000.00,029.3,028.2,000.0,037.8,030.9,25.3,0000.0,0006.40,0003.96,0003.69
2023-07-02 04:16:00,SystemResetWarning,0834.5,4.99,000.00,029.4,028.2,000.0,037.8,031.0,26.1,0000.0,0006.28,0003.93,0003.69
2023-07-02 04:17:00,SystemResetWarning,0834.6,5.00,000.00,029.4,028.3,000.0,037.8,031.0,26.2,0000.0,0006.18,0003.91,0003.68
2023-07-02 04:18:00,SystemResetWarning,0834.4,5.00,000.00,029.4,028.3,000.0,037.8,031.0,26.6,0000.0,0006.05,0003.90,0003.67
2023-07-02 04:19:00,SystemResetWarning,0834.6,5.00,000.00,029.4,028.3,000.0,037.9,031.0,26.8,0000.0,0006.14,0003.93,0003.67
2023-07-02 04:20:00,SystemResetWarning,0834.5,4.99,000.00,029.5,027.4,000.0,037.8,031.0,26.4,0000.0,0006.35,0003.97,0003.68
2023-07-02 04:21:00,SystemResetWarning,0834.3,5.00,000.00,029.4,025.6,000.0,037.7,030.8,26.9,0000.0,0006.20,0004.00,0003.69
2023-07-02 04:22:00,SystemResetWarning,0834.4,5.00,000.00,029.3,025.1,000.0,037.6,030.6,27.8,0000.0,0006.07,0004.00,0003.71
2023-07-02 04:23:00,SystemResetWarning,0834.3,5.01,000.00,029.2,025.3,000.0,037.7,030.3,28.1,0000.0,0006.14,0004.00,0003.72
2023-07-02 04:24:00,SystemResetWarning,0834.4,5.01,000.00,029.1,025.6,000.0,037.7,030.3,28.8,0000.0,0006.16,0004.02,0003.74
2023-07-02 04:25:00,SystemResetWarning,0834.4,4.98,000.00,029.1,026.1,000.0,037.7,030.4,29.3,0000.0,0006.10,0004.02,0003.76
2023-07-02 04:26:00,SystemResetWarning,0834.4,5.00,000.00,029.1,026.4,000.0,037.7,030.5,29.2,0000.0,0006.09,0004.05,0003.78
2023-07-02 04:27:00,SystemResetWarning,0834.4,5.01,000.00,029.1,026.7,000.0,037.7,030.5,29.7,0000.0,0006.23,0004.08,0003.80
2023-07-02 04:28:00,SystemResetWarning,0834.4,5.01,000.00,029.1,027.0,000.0,037.7,030.6,29.2,-000.2,0006.41,0004.11,0003.83
2023-07-02 04:29:00,SystemResetWarning,0834.4,5.00,000.00,029.1,027.2,000.0,037.7,030.6,28.5,-000.6,0006.44,0004.12,0003.85
2023-07-02 04:30:00,SystemResetWarning,0834.4,5.00,000.00,029.1,027.4,000.0,037.7,030.6,27.3,0000.0,0006.34,0004.12,0003.87
2023-07-02 04:31:00,SystemResetWarning,0834.4,5.00,000.00,029.1,027.5,000.0,037.7,030.7,27.3,0000.0,0007.07,0004.11,0003.88
2023-07-02 04:32:00,SystemResetWarning,0834.3,5.00,000.00,029.1,027.7,000.0,037.7,030.7,28.2,0000.0,0007.52,0004.09,0003.88
2023-07-02 04:33:00,SystemResetWarning,0834.3,5.00,000.00,029.2,027.8,000.0,037.7,030.7,28.9,0000.0,0007.49,0004.10,0003.89
2023-07-02 04:34:00,SystemResetWarning,0834.3,5.00,000.00,029.2,027.8,000.0,037.7,030.8,28.5,0000.0,0007.69,0004.12,0003.90
2023-07-02 04:35:00,SystemResetWarning,0834.3,5.00,000.00,029.2,027.9,000.0,037.7,030.8,28.5,0000.0,0008.10,0004.13,0003.90
2023-07-02 04:36:00,SystemResetWarning,0834.4,5.00,000.00,029.3,028.0,000.0,037.7,030.8,28.9,0000.0,0008.17,0004.15,0003.90
2023-07-02 04:37:00,SystemResetWarning,0834.5,4.99,000.00,029.3,028.0,000.0,037.7,030.9,28.3,0000.0,0008.20,0004.14,0003.90
2023-07-02 04:38:00,SystemResetWarning,0834.2,5.00,000.00,029.3,028.1,000.0,037.7,030.9,27.6,0000.0,0008.17,0004.15,0003.90
2023-07-02 04:39:00,SystemResetWarning,0834.2,4.99,000.00,029.3,028.1,000.0,037.8,030.9,27.2,0000.0,0008.10,0004.16,0003.91
2023-07-02 04:40:00,SystemResetWarning,0834.1,4.99,000.00,029.3,028.2,000.0,037.8,030.9,27.0,0000.0,0008.12,0004.18,0003.92
2023-07-02 04:41:00,SystemResetWarning,0834.1,5.00,000.00,029.4,028.2,000.0,037.8,031.0,26.3,0000.0,0008.19,0004.20,0003.92
2023-07-02 04:42:00,SystemResetWarning,0834.0,5.00,000.00,029.4,028.3,000.0,037.8,031.0,26.3,0000.0,0007.64,0004.21,0003.92
2023-07-02 04:43:00,SystemResetWarning,0834.0,4.99,000.00,029.4,028.3,000.0,037.9,031.0,25.4,0000.0,0007.41,0004.22,0003.93
2023-07-02 04:44:00,SystemResetWarning,0833.9,5.00,000.00,029.5,028.3,000.0,037.9,031.0,25.0,0000.0,0007.46,0004.19,0003.94
2023-07-02 04:45:00,SystemResetWarning,0833.9,5.00,000.00,029.5,028.4,000.0,037.9,031.1,25.0,0000.0,0007.13,0004.17,0003.94
2023-07-02 04:46:00,SystemResetWarning,0833.8,5.00,000.00,029.5,028.4,000.0,037.9,031.1,25.1,0000.0,0006.71,0004.20,0003.95
2023-07-02 04:47:00,SystemResetWarning,0833.9,5.00,000.00,029.5,027.9,000.0,037.9,031.1,24.7,0000.0,0006.73,0004.20,0003.95
2023-07-02 04:48:00,SystemResetWarning,0833.9,4.99,000.00,029.5,026.0,000.0,037.8,030.9,24.6,0000.0,0006.79,0004.21,0003.96
2023-07-02 04:49:00,SystemResetWarning,0833.9,5.01,000.00,029.4,025.1,000.0,037.7,030.7,25.1,0000.0,0007.21,0004.21,0003.97
2023-07-02 04:50:00,SystemResetWarning,0833.9,5.01,000.00,029.3,025.2,000.0,037.7,030.4,25.5,0000.0,0007.46,0004.21,0003.98
2023-07-02 04:51:00,SystemResetWarning,0833.8,5.00,000.00,029.2,025.6,000.0,037.7,030.4,25.9,0000.0,0007.80,0004.22,0003.98
2023-07-02 04:52:00,SystemResetWarning,0833.8,5.00,000.00,029.1,026.0,000.0,037.7,030.4,26.1,0000.0,0007.85,0004.24,0004.00
2023-07-02 04:53:00,SystemResetWarning,0833.8,4.99,000.00,029.1,026.4,000.0,037.7,030.5,25.6,0000.0,0007.86,0004.25,0004.01
2023-07-02 04:54:00,SystemResetWarning,0833.8,4.98,000.00,029.1,026.7,000.0,037.7,030.6,25.7,0000.0,0007.92,0004.27,0004.02
2023-07-02 04:55:00,SystemResetWarning,0833.8,5.00,000.00,029.1,027.0,000.0,037.7,030.6,26.1,0000.0,0008.16,0004.27,0004.02
2023-07-02 04:56:00,SystemResetWarning,0833.8,5.01,000.00,029.1,027.2,000.0,037.7,030.7,25.9,0000.0,0008.19,0004.27,0004.03
2023-07-02 04:57:00,SystemResetWarning,0833.7,4.99,000.00,029.2,027.4,000.0,037.7,030.7,25.7,0000.0,0008.06,0004.27,0004.04
2023-07-02 04:58:00,SystemResetWarning,0833.7,4.99,000.00,029.2,027.6,000.0,037.7,030.8,25.2,0000.0,0008.24,0004.30,0004.05
2023-07-02 04:59:00,SystemResetWarning,0833.7,4.99,000.00,029.2,027.7,000.0,037.7,030.8,25.2,0000.0,0008.32,0004.31,0004.07
